Retour au catalogue

STARLINK-34151

ActifCommunicationsVLEO
NORAD 64120·PAYLOAD·🇺🇸 United States

Lancé May 23, 2025 depuis Vandenberg Space Force Base

Loading…

Prochains Passages (prochaines 24 heures)

TLE

FraisSource: CelesTrak SupGP

Époque: Sep 15, 2026, 03:25 UTC

1 64120C 25110AA  26258.14284722 -.00042523  00000+0 -13963-2 0  2584
2 64120  53.1585 226.3796 0001309  88.5944 294.7843 15.31053365    18

Suivez STARLINK-34151 en temps réel avec AllMySat

Download on the App Store